Time,TemperatureF,DewpointF,PressureIn,WindDirection,WindDirectionDegrees,WindSpeedMPH,WindSpeedGustMPH,Humidity,HourlyPrecipIn,Conditions,Clouds,dailyrainin,SoftwareType,DateUTC
2013-01-29 00:04:00,36.0,-99.9,-100.00,South,180,5.0,11.0,-999,-99.99,,,-99.99,,2013-01-29 05:04:00,
2013-01-29 00:12:00,36.0,-99.9,-100.00,South,180,5.0,11.0,-999,-99.99,,,-99.99,,2013-01-29 05:12:00,
2013-01-29 00:21:00,36.0,36.0,-100.00,South,180,7.0,14.0,99,-99.99,,,-99.99,,2013-01-29 05:21:00,
2013-01-29 00:32:00,36.0,36.0,-100.00,SSW,200,11.0,19.0,99,-99.99,,,-99.99,,2013-01-29 05:32:00,
2013-01-29 00:42:00,36.0,36.0,-100.00,SSW,200,11.0,19.0,99,-99.99,,,-99.99,,2013-01-29 05:42:00,
2013-01-29 00:52:00,36.0,36.0,-100.00,SSW,200,9.0,19.0,99,-99.99,,,-99.99,,2013-01-29 05:52:00,
2013-01-29 01:02:00,36.0,36.0,-100.00,SSW,200,9.0,19.0,99,-99.99,,,-99.99,,2013-01-29 06:02:00,
2013-01-29 01:21:00,36.0,35.0,-100.00,SW,215,8.0,16.0,97,-99.99,,,-99.99,,2013-01-29 06:21:00,
2013-01-29 01:32:00,36.0,35.0,-100.00,SSW,195,10.0,19.0,97,-99.99,,,-99.99,,2013-01-29 06:32:00,
2013-01-29 01:42:00,36.0,35.0,-100.00,SSW,195,10.0,19.0,97,-99.99,,,-99.99,,2013-01-29 06:42:00,
2013-01-29 01:52:00,36.0,35.0,-100.00,SSW,200,10.0,23.0,97,-99.99,,,-99.99,,2013-01-29 06:52:00,
2013-01-29 02:01:00,36.0,35.0,-100.00,SSW,200,9.0,25.0,97,-99.99,,,-99.99,,2013-01-29 07:01:00,
2013-01-29 02:11:00,36.0,35.0,-100.00,SSW,200,9.0,25.0,97,-99.99,,,-99.99,,2013-01-29 07:11:00,
2013-01-29 02:21:00,36.0,35.0,-100.00,SSW,200,11.0,17.0,96,-99.99,,,-99.99,,2013-01-29 07:21:00,
2013-01-29 02:32:00,36.0,35.0,-100.00,SSW,195,9.0,19.0,96,-99.99,,,-99.99,,2013-01-29 07:32:00,
2013-01-29 02:42:00,36.0,35.0,-100.00,SSW,195,9.0,19.0,96,-99.99,,,-99.99,,2013-01-29 07:42:00,
2013-01-29 02:52:00,36.0,35.0,-100.00,SSW,200,9.0,16.0,96,-99.99,,,-99.99,,2013-01-29 07:52:00,
2013-01-29 03:02:00,36.0,35.0,-100.00,SSW,200,11.0,18.0,97,-99.99,,,-99.99,,2013-01-29 08:02:00,
2013-01-29 03:11:00,36.0,35.0,-100.00,SSW,200,11.0,18.0,97,-99.99,,,-99.99,,2013-01-29 08:11:00,
2013-01-29 03:21:00,36.0,35.0,-100.00,SSW,195,9.0,19.0,98,-99.99,,,-99.99,,2013-01-29 08:21:00,
2013-01-29 03:31:00,36.0,36.0,-100.00,SSW,200,9.0,14.0,99,-99.99,,,-99.99,,2013-01-29 08:31:00,
2013-01-29 03:42:00,36.0,36.0,-100.00,SSW,200,9.0,14.0,99,-99.99,,,-99.99,,2013-01-29 08:42:00,
2013-01-29 03:52:00,36.0,-99.9,-100.00,South,180,10.0,16.0,-999,-99.99,,,-99.99,,2013-01-29 08:52:00,
2013-01-29 04:02:00,36.0,-99.9,-100.00,South,180,8.0,16.0,-999,-99.99,,,-99.99,,2013-01-29 09:02:00,
2013-01-29 04:11:00,36.0,-99.9,-100.00,South,180,8.0,16.0,-999,-99.99,,,-99.99,,2013-01-29 09:11:00,
2013-01-29 04:22:00,36.0,-99.9,-100.00,South,175,10.0,15.0,-999,-99.99,,,-99.99,,2013-01-29 09:22:00,
2013-01-29 04:32:00,36.0,-99.9,-100.00,South,185,11.0,16.0,-999,-99.99,,,-99.99,,2013-01-29 09:32:00,
2013-01-29 04:42:00,36.0,-99.9,-100.00,South,185,11.0,16.0,-999,-99.99,,,-99.99,,2013-01-29 09:42:00,
2013-01-29 04:52:00,36.0,-99.9,-100.00,SSW,200,10.0,20.0,-999,-99.99,,,-99.99,,2013-01-29 09:52:00,
2013-01-29 05:02:00,36.0,-99.9,-100.00,SSW,200,11.0,20.0,-999,-99.99,,,-99.99,,2013-01-29 10:02:00,
2013-01-29 05:11:00,36.0,-99.9,-100.00,SSW,200,11.0,20.0,-999,-99.99,,,-99.99,,2013-01-29 10:11:00,
2013-01-29 05:22:00,36.0,-99.9,-100.00,South,190,14.0,23.0,-999,-99.99,,,-99.99,,2013-01-29 10:22:00,
2013-01-29 05:32:00,36.0,-99.9,-100.00,SSW,195,14.0,26.0,-999,-99.99,,,-99.99,,2013-01-29 10:32:00,
2013-01-29 05:42:00,36.0,-99.9,-100.00,SSW,195,14.0,26.0,-999,-99.99,,,-99.99,,2013-01-29 10:42:00,
2013-01-29 05:52:00,36.0,-99.9,-100.00,South,170,13.0,19.0,-999,-99.99,,,-99.99,,2013-01-29 10:52:00,
2013-01-29 06:02:00,36.0,-99.9,-100.00,SSE,165,7.0,19.0,-999,-99.99,,,-99.99,,2013-01-29 11:02:00,
2013-01-29 06:12:00,36.0,-99.9,-100.00,SSE,165,7.0,19.0,-999,-99.99,,,-99.99,,2013-01-29 11:12:00,
2013-01-29 06:22:00,36.0,-99.9,-100.00,South,185,8.0,19.0,-999,-99.99,,,-99.99,,2013-01-29 11:22:00,
2013-01-29 06:32:00,36.0,-99.9,-100.00,SSW,200,8.0,13.0,-999,-99.99,,,-99.99,,2013-01-29 11:32:00,
2013-01-29 06:42:00,36.0,-99.9,-100.00,SSW,200,8.0,13.0,-999,-99.99,,,-99.99,,2013-01-29 11:42:00,
2013-01-29 06:53:00,37.0,-99.9,-100.00,South,190,9.0,13.0,-999,-99.99,,,-99.99,,2013-01-29 11:53:00,
2013-01-29 07:03:00,37.0,-99.9,-100.00,South,190,9.0,13.0,-999,-99.99,,,-99.99,,2013-01-29 12:03:00,
2013-01-29 07:12:00,37.0,-99.9,-100.00,South,190,9.0,13.0,-999,-99.99,,,-99.99,,2013-01-29 12:12:00,
2013-01-29 07:22:00,37.0,-99.9,-100.00,South,185,6.0,14.0,-999,-99.99,,,-99.99,,2013-01-29 12:22:00,
2013-01-29 07:33:00,37.0,-99.9,-100.00,South,185,6.0,18.0,-999,-99.99,,,-99.99,,2013-01-29 12:33:00,
2013-01-29 07:43:00,37.0,-99.9,-100.00,South,185,6.0,18.0,-999,-99.99,,,-99.99,,2013-01-29 12:43:00,
2013-01-29 07:53:00,37.0,-99.9,-100.00,South,175,9.0,15.0,-999,-99.99,,,-99.99,,2013-01-29 12:53:00,
2013-01-29 08:02:00,36.0,-99.9,-100.00,South,170,7.0,15.0,-999,-99.99,,,-99.99,,2013-01-29 13:02:00,
2013-01-29 08:12:00,36.0,-99.9,-100.00,South,170,7.0,15.0,-999,-99.99,,,-99.99,,2013-01-29 13:12:00,
2013-01-29 08:23:00,36.0,-99.9,-100.00,South,175,6.0,13.0,-999,-99.99,,,-99.99,,2013-01-29 13:23:00,
2013-01-29 08:32:00,36.0,-99.9,-100.00,South,170,8.0,18.0,-999,-99.99,,,-99.99,,2013-01-29 13:32:00,
2013-01-29 08:43:00,36.0,-99.9,-100.00,South,170,8.0,18.0,-999,-99.99,,,-99.99,,2013-01-29 13:43:00,
2013-01-29 08:53:00,36.0,-99.9,-100.00,South,175,11.0,18.0,-999,-99.99,,,-99.99,,2013-01-29 13:53:00,
2013-01-29 09:02:00,37.0,-99.9,-100.00,South,170,9.0,27.0,-999,-99.99,,,-99.99,,2013-01-29 14:02:00,
2013-01-29 09:13:00,37.0,-99.9,-100.00,South,170,9.0,27.0,-999,-99.99,,,-99.99,,2013-01-29 14:13:00,
2013-01-29 09:22:00,37.0,-99.9,-100.00,SSE,155,8.0,14.0,-999,-99.99,,,-99.99,,2013-01-29 14:22:00,
2013-01-29 09:33:00,37.0,-99.9,-100.00,South,185,7.0,21.0,-999,-99.99,,,-99.99,,2013-01-29 14:33:00,
2013-01-29 09:43:00,37.0,-99.9,-100.00,South,185,7.0,21.0,-999,-99.99,,,-99.99,,2013-01-29 14:43:00,
2013-01-29 09:53:00,37.0,-99.9,-100.00,South,170,9.0,24.0,-999,-99.99,,,-99.99,,2013-01-29 14:53:00,
2013-01-29 10:03:00,37.0,-99.9,-100.00,ENE,65,4.0,16.0,-999,-99.99,,,-99.99,,2013-01-29 15:03:00,
2013-01-29 10:12:00,37.0,-99.9,-100.00,ENE,65,4.0,16.0,-999,-99.99,,,-99.99,,2013-01-29 15:12:00,
2013-01-29 10:22:00,37.0,-99.9,-100.00,ENE,70,0.0,14.0,-999,-99.99,,,-99.99,,2013-01-29 15:22:00,
2013-01-29 10:33:00,37.0,-99.9,-100.00,ENE,70,1.0,47.0,-999,-99.99,,,-99.99,,2013-01-29 15:33:00,
2013-01-29 10:43:00,37.0,-99.9,-100.00,ENE,70,1.0,47.0,-999,-99.99,,,-99.99,,2013-01-29 15:43:00,
2013-01-29 10:53:00,37.0,-99.9,-100.00,South,180,9.0,45.0,-999,-99.99,,,-99.99,,2013-01-29 15:53:00,
2013-01-29 11:03:00,37.0,-99.9,-100.00,West,270,10.0,58.0,-999,-99.99,,,-99.99,,2013-01-29 16:03:00,
2013-01-29 11:13:00,37.0,-99.9,-100.00,West,270,10.0,58.0,-999,-99.99,,,-99.99,,2013-01-29 16:13:00,
2013-01-29 11:23:00,38.0,-99.9,-100.00,North,0,5.0,59.0,-999,-99.99,,,-99.99,,2013-01-29 16:23:00,
2013-01-29 11:33:00,38.0,-99.9,-100.00,North,0,4.0,100.0,-999,-99.99,,,-99.99,,2013-01-29 16:33:00,
2013-01-29 11:43:00,38.0,-99.9,-100.00,North,0,4.0,100.0,-999,-99.99,,,-99.99,,2013-01-29 16:43:00,
2013-01-29 11:53:00,38.0,-99.9,-100.00,North,0,3.0,175.0,-999,-99.99,,,-99.99,,2013-01-29 16:53:00,
2013-01-29 12:03:00,38.0,-99.9,-100.00,South,190,7.0,40.0,-999,-99.99,,,-99.99,,2013-01-29 17:03:00,
2013-01-29 12:13:00,38.0,-99.9,-100.00,South,190,7.0,40.0,-999,-99.99,,,-99.99,,2013-01-29 17:13:00,
2013-01-29 12:20:00,39.0,-99.9,-100.00,SSW,205,4.0,12.0,-999,-99.99,,,-99.99,,2013-01-29 17:20:00,
2013-01-29 12:22:00,38.0,-99.9,-100.00,South,190,7.0,17.0,-999,-99.99,,,-99.99,,2013-01-29 17:22:00,
2013-01-29 12:33:00,39.0,-99.9,-100.00,SSW,200,6.0,12.0,-999,-99.99,,,-99.99,,2013-01-29 17:33:00,
2013-01-29 12:43:00,39.0,-99.9,-100.00,SSW,200,6.0,12.0,-999,-99.99,,,-99.99,,2013-01-29 17:43:00,
2013-01-29 12:53:00,39.0,-99.9,-100.00,SSW,205,7.0,12.0,-999,-99.99,,,-99.99,,2013-01-29 17:53:00,
2013-01-29 13:05:00,39.0,-99.9,-100.00,SSW,205,4.0,12.0,-999,-99.99,,,-99.99,,2013-01-29 18:05:00,
2013-01-29 13:13:00,39.0,-99.9,-100.00,SSW,205,4.0,12.0,-999,-99.99,,,-99.99,,2013-01-29 18:13:00,
2013-01-29 13:34:00,39.0,-99.9,-100.00,WSW,240,5.0,10.0,-999,-99.99,,,-99.99,,2013-01-29 18:34:00,
2013-01-29 13:43:00,39.0,-99.9,-100.00,WSW,240,5.0,10.0,-999,-99.99,,,-99.99,,2013-01-29 18:43:00,
2013-01-29 13:52:00,39.0,-99.9,-100.00,SW,225,7.0,13.0,-999,-99.99,,,-99.99,,2013-01-29 18:52:00,
2013-01-29 14:03:00,39.0,-99.9,-100.00,WSW,240,7.0,11.0,-999,-99.99,,,-99.99,,2013-01-29 19:03:00,
2013-01-29 14:12:00,39.0,-99.9,-100.00,WSW,240,7.0,11.0,-999,-99.99,,,-99.99,,2013-01-29 19:12:00,
2013-01-29 14:23:00,39.0,-99.9,-100.00,West,265,4.0,10.0,-999,-99.99,,,-99.99,,2013-01-29 19:23:00,
2013-01-29 14:33:00,39.0,-99.9,-100.00,West,265,6.0,9.0,-999,-99.99,,,-99.99,,2013-01-29 19:33:00,
2013-01-29 14:42:00,39.0,-99.9,-100.00,West,265,6.0,9.0,-999,-99.99,,,-99.99,,2013-01-29 19:42:00,
2013-01-29 14:52:00,39.0,-99.9,-100.00,West,265,10.0,19.0,-999,-99.99,,,-99.99,,2013-01-29 19:52:00,
2013-01-29 15:03:00,39.0,-99.9,-100.00,West,270,9.0,17.0,-999,-99.99,,,-99.99,,2013-01-29 20:03:00,
2013-01-29 15:13:00,39.0,-99.9,-100.00,West,270,9.0,17.0,-999,-99.99,,,-99.99,,2013-01-29 20:13:00,
2013-01-29 15:23:00,40.0,-99.9,-100.00,West,260,14.0,18.0,-999,-99.99,,,-99.99,,2013-01-29 20:23:00,
2013-01-29 15:33:00,40.0,-99.9,-100.00,West,265,6.0,14.0,-999,-99.99,,,-99.99,,2013-01-29 20:33:00,
2013-01-29 15:43:00,40.0,-99.9,-100.00,West,265,6.0,14.0,-999,-99.99,,,-99.99,,2013-01-29 20:43:00,
2013-01-29 15:54:00,40.0,-99.9,-100.00,WNW,295,5.0,8.0,-999,-99.99,,,-99.99,,2013-01-29 20:54:00,
2013-01-29 16:03:00,40.0,-99.9,-100.00,West,280,5.0,9.0,-999,-99.99,,,-99.99,,2013-01-29 21:03:00,
2013-01-29 16:13:00,40.0,-99.9,-100.00,West,280,5.0,9.0,-999,-99.99,,,-99.99,,2013-01-29 21:13:00,
2013-01-29 16:23:00,40.0,-99.9,-100.00,West,280,3.0,6.0,-999,-99.99,,,-99.99,,2013-01-29 21:23:00,
2013-01-29 16:34:00,41.0,-99.9,-100.00,NW,310,4.0,6.0,-999,-99.99,,,-99.99,,2013-01-29 21:34:00,
2013-01-29 16:43:00,41.0,-99.9,-100.00,NW,310,4.0,6.0,-999,-99.99,,,-99.99,,2013-01-29 21:43:00,
2013-01-29 16:53:00,41.0,-99.9,-100.00,NNW,345,4.0,7.0,-999,-99.99,,,-99.99,,2013-01-29 21:53:00,
2013-01-29 17:03:00,41.0,-99.9,-100.00,North,350,5.0,10.0,-999,-99.99,,,-99.99,,2013-01-29 22:03:00,
2013-01-29 17:12:00,41.0,-99.9,-100.00,North,350,5.0,10.0,-999,-99.99,,,-99.99,,2013-01-29 22:12:00,
2013-01-29 17:22:00,41.0,-99.9,-100.00,NNW,335,4.0,7.0,-999,-99.99,,,-99.99,,2013-01-29 22:22:00,
2013-01-29 17:33:00,41.0,-99.9,-100.00,NW,315,6.0,9.0,-999,-99.99,,,-99.99,,2013-01-29 22:33:00,
2013-01-29 17:43:00,41.0,-99.9,-100.00,NW,315,6.0,9.0,-999,-99.99,,,-99.99,,2013-01-29 22:43:00,
2013-01-29 17:53:00,40.0,-99.9,-100.00,NNW,330,4.0,9.0,-999,-99.99,,,-99.99,,2013-01-29 22:53:00,
2013-01-29 18:03:00,40.0,-99.9,-100.00,NNW,345,5.0,7.0,-999,-99.99,,,-99.99,,2013-01-29 23:03:00,
2013-01-29 18:12:00,40.0,-99.9,-100.00,NNW,345,5.0,7.0,-999,-99.99,,,-99.99,,2013-01-29 23:12:00,
2013-01-29 18:23:00,40.0,-99.9,-100.00,NNW,330,4.0,8.0,-999,-99.99,,,-99.99,,2013-01-29 23:23:00,
2013-01-29 18:33:00,40.0,-99.9,-100.00,North,355,4.0,7.0,-999,-99.99,,,-99.99,,2013-01-29 23:33:00,
2013-01-29 18:42:00,40.0,-99.9,-100.00,North,355,4.0,7.0,-999,-99.99,,,-99.99,,2013-01-29 23:42:00,
2013-01-29 18:53:00,40.0,-99.9,-100.00,North,5,4.0,6.0,-999,-99.99,,,-99.99,,2013-01-29 23:53:00,
2013-01-29 19:03:00,39.0,-99.9,-100.00,North,0,8.0,13.0,-999,-99.99,,,-99.99,,2013-01-30 00:03:00,
2013-01-29 19:12:00,39.0,-99.9,-100.00,North,0,8.0,13.0,-999,-99.99,,,-99.99,,2013-01-30 00:12:00,
2013-01-29 19:22:00,39.0,-99.9,-100.00,North,10,8.0,14.0,-999,-99.99,,,-99.99,,2013-01-30 00:22:00,
2013-01-29 19:33:00,39.0,-99.9,-100.00,North,0,9.0,15.0,-999,-99.99,,,-99.99,,2013-01-30 00:33:00,
2013-01-29 19:43:00,39.0,-99.9,-100.00,North,0,9.0,15.0,-999,-99.99,,,-99.99,,2013-01-30 00:43:00,
2013-01-29 19:53:00,38.0,-99.9,-100.00,North,10,8.0,12.0,-999,-99.99,,,-99.99,,2013-01-30 00:53:00,
2013-01-29 20:02:00,38.0,-99.9,-100.00,North,10,8.0,12.0,-999,-99.99,,,-99.99,,2013-01-30 01:02:00,
2013-01-29 20:23:00,38.0,-99.9,-100.00,North,0,7.0,11.0,-999,-99.99,,,-99.99,,2013-01-30 01:23:00,
2013-01-29 20:32:00,38.0,-99.9,-100.00,North,355,7.0,12.0,-999,-99.99,,,-99.99,,2013-01-30 01:32:00,
2013-01-29 20:43:00,38.0,-99.9,-100.00,North,355,7.0,12.0,-999,-99.99,,,-99.99,,2013-01-30 01:43:00,
2013-01-29 20:52:00,38.0,38.0,-100.00,North,5,8.0,11.0,99,-99.99,,,-99.99,,2013-01-30 01:52:00,
2013-01-29 21:02:00,38.0,37.0,-100.00,North,5,7.0,13.0,97,-99.99,,,-99.99,,2013-01-30 02:02:00,
2013-01-29 21:12:00,38.0,37.0,-100.00,North,5,7.0,13.0,97,-99.99,,,-99.99,,2013-01-30 02:12:00,
2013-01-29 21:22:00,38.0,37.0,-100.00,North,5,10.0,16.0,96,-99.99,,,-99.99,,2013-01-30 02:22:00,
2013-01-29 21:33:00,38.0,37.0,-100.00,North,5,6.0,12.0,96,-99.99,,,-99.99,,2013-01-30 02:33:00,
2013-01-29 21:42:00,38.0,37.0,-100.00,North,5,6.0,12.0,96,-99.99,,,-99.99,,2013-01-30 02:42:00,
2013-01-29 21:52:00,38.0,37.0,-100.00,North,0,6.0,9.0,96,-99.99,,,-99.99,,2013-01-30 02:52:00,
2013-01-29 22:03:00,38.0,37.0,-100.00,North,0,6.0,9.0,96,-99.99,,,-99.99,,2013-01-30 03:03:00,
2013-01-29 22:22:00,38.0,37.0,-100.00,NNE,20,9.0,13.0,97,-99.99,,,-99.99,,2013-01-30 03:22:00,
2013-01-29 22:32:00,38.0,37.0,-100.00,North,10,9.0,14.0,97,-99.99,,,-99.99,,2013-01-30 03:32:00,
2013-01-29 22:42:00,38.0,37.0,-100.00,North,10,9.0,14.0,97,-99.99,,,-99.99,,2013-01-30 03:42:00,
2013-01-29 22:52:00,38.0,36.0,-100.00,North,5,10.0,16.0,94,-99.99,,,-99.99,,2013-01-30 03:52:00,
2013-01-29 23:02:00,38.0,36.0,-100.00,NNE,15,13.0,16.0,92,-99.99,,,-99.99,,2013-01-30 04:02:00,
2013-01-29 23:12:00,38.0,36.0,-100.00,NNE,15,13.0,16.0,92,-99.99,,,-99.99,,2013-01-30 04:12:00,
2013-01-29 23:22:00,38.0,35.0,-100.00,North,10,12.0,17.0,91,-99.99,,,-99.99,,2013-01-30 04:22:00,
2013-01-29 23:32:00,38.0,35.0,-100.00,North,10,9.0,16.0,92,-99.99,,,-99.99,,2013-01-30 04:32:00,
2013-01-29 23:41:00,38.0,35.0,-100.00,North,10,9.0,16.0,92,-99.99,,,-99.99,,2013-01-30 04:41:00,
2013-01-29 23:52:00,37.0,35.0,-100.00,North,10,14.0,19.0,90,-99.99,,,-99.99,,2013-01-30 04:52:00,